TIANWANG 1B (TW-1B)
1 40927U 15051C   19063.49293325  .00013090  00000-0  21895-3 0  9991
2 40927  97.1542 109.4546 0010813  64.3377  43.1686 15.51953650193533
TIANWANG 1A (TW-1A)
1 40928U 15051D   19063.48376676  .00003920  00000-0  99718-4 0  9993
2 40928  97.1593  97.1121 0013525  98.2884  11.5750 15.40090526192828
LAPAN A2
1 40931U 15052B   19062.49537993  .00000670  00000-0  43304-5 0  9999
2 40931   5.9994 100.9123 0012833  78.2404 281.9163 14.76598751185392
LQSAT
1 40958U 15057A   19063.46290719  .00000001  00000-0  78825-5 0  9997
2 40958  97.9099 135.4700 0017174 218.6570 141.3411 14.73068260183161
CHUBUSAT 2
1 41338U 16012B   19062.83020820  .00000319  00000-0  18137-4 0  9997
2 41338  31.0031 103.8618 0013788 124.7467 235.4468 15.00101087166855
CHUBUSAT 3
1 41339U 16012C   19063.41109501  .00000225  00000-0  10701-4 0  9992
2 41339  31.0097  98.4046 0013409 138.1915 221.9751 15.00279435166936
OUFTI-1
1 41458U 16025C   19063.45418265  .00000885  00000-0  49554-4 0  9992
2 41458  98.1070 144.9160 0167402 354.7431   5.2024 15.05454072156593
E-STAR-2
1 41459U 16025D   19063.44636860  .00000836  00000-0  47249-4 0  9990
2 41459  98.1056 144.6279 0169028 355.7177   4.2601 15.05120603156567
AAUSAT 4
1 41460U 16025E   19063.21736636  .00002184  00000-0  11403-3 0  9999
2 41460  98.1026 145.3786 0159115 350.1513   9.6603 15.06864618156637
NUSAT 1
1 41557U 16033B   19063.49701336  .00001321  00000-0  52717-4 0  9990
2 41557  97.4211 151.6314 0012748 318.0927  41.9335 15.26914847153888
BEESAT 4
1 41619U 16040W   19062.87853799 +.00001475 +00000-0 +65978-4 0  9992
2 41619 097.3813 127.0370 0012518 045.6981 314.5280 15.22814070137604
PRATHAM
1 41783U 16059A   19062.90445897 +.00000052 +00000-0 +19339-4 0  9994
2 41783 098.0822 124.7685 0033498 002.1637 357.9704 14.62975425129937
ALSAT 1N
1 41789U 16059G   19063.39400014  .00000027  00000-0  14154-4 0  9998
2 41789  98.0841 127.0147 0027866 351.8152   8.2593 14.64219266130098
NAYIF 1
1 42017U 17008BX  19062.76877951  .00001597  00000-0  66492-4 0  9991
2 42017  97.4157 130.9205 0006446 171.6324 188.5023 15.25187474113627
LILACSAT-1
1 42725U 98067ME  19063.47532390  .00248604  36885-4  48512-3 0  9993
2 42725  51.6291  91.0445 0005880  57.0840  85.7757 15.99715142101650
MAX VALIER SAT
1 42778U 17036P   19062.94902519 +.00000937 +00000-0 +44296-4 0  9990
2 42778 097.3690 122.8990 0011157 234.1080 125.9121 15.21793618094005
